contact:dominique.lefevre@mio.osupytheas.fr, maurice.libes@osupytheas.fr, didier.mallarino@osupytheas.fr
Project:EMSO http://www.emso-fr.org/EMSO-France
Depth: 2436.0 m
Title:EMSO Ligure Ouest : Data MII capteur AQUADOPP
Date,Latitude,Longitude,X_East,Y_North,Z_Up,Amplitude_X,Amplitude_Y,Amplitude_Z,Batterie,SoundSpeed,Heading,Pitch,Roll,Pressure,TIS,Speed,Direction
, degrees North, degrees East, m.s-1, m.s-1,m.s-1, 1, 1, 1, Volt, m.s-1, degree, degree, degree, dbar, degree_C, m.s-1, degree
2021-03-19T00:04:03,42.805,6.029,0.012,-0.05,0.015,116.0,115.0,113.0,13.4,1505.2,327.5,-0.8,1.8,2469.211,13.28,0.051,166.5
2021-03-19T00:07:03,42.805,6.029,0.008,-0.037,-0.004,118.0,117.0,112.0,13.4,1505.2,327.4,-0.8,1.8,2469.171,13.28,0.037,167.8
2021-03-19T00:10:03,42.805,6.029,0.009,-0.035,0.004,117.0,115.0,111.0,13.4,1505.2,327.0,-0.7,1.8,2469.156,13.28,0.036,165.6
2021-03-19T00:13:03,42.805,6.029,0.009,-0.053,0.004,118.0,116.0,112.0,13.4,1505.2,327.7,-0.8,1.8,2469.22,13.28,0.053,170.4
2021-03-19T00:16:03,42.805,6.029,0.01,-0.053,0.001,116.0,114.0,112.0,13.4,1505.2,327.0,-0.7,1.8,2469.128,13.28,0.053,169.3
2021-03-19T00:19:03,42.805,6.029,-0.001,-0.03,-0.001,114.0,115.0,110.0,13.3,1505.2,327.1,-0.8,1.8,2469.164,13.28,0.03,181.9
2021-03-19T00:22:03,42.805,6.029,0.0,-0.045,-0.011,114.0,113.0,109.0,13.4,1505.2,327.6,-0.8,1.8,2469.165,13.28,0.045,180.0
2021-03-19T00:25:03,42.805,6.029,0.009,-0.057,-0.02,114.0,113.0,109.0,13.4,1505.2,327.6,-0.7,1.8,2469.169,13.28,0.057,171.0
2021-03-19T00:28:03,42.805,6.029,0.019,-0.071,-0.013,112.0,113.0,108.0,13.3,1505.2,326.8,-0.8,1.8,2469.147,13.28,0.073,165.0
2021-03-19T00:31:03,42.805,6.029,0.005,-0.029,0.001,114.0,113.0,109.0,13.4,1505.2,327.5,-0.7,1.8,2469.164,13.28,0.029,170.2
2021-03-19T00:34:03,42.805,6.029,0.028,-0.033,-0.024,114.0,112.0,110.0,13.3,1505.2,327.0,-0.8,1.8,2469.137,13.28,0.043,139.7
2021-03-19T00:37:03,42.805,6.029,0.012,-0.053,0.024,112.0,112.0,107.0,13.4,1505.2,327.2,-0.7,1.8,2469.176,13.28,0.054,167.2
2021-03-19T00:40:03,42.805,6.029,0.019,-0.053,0.004,113.0,112.0,108.0,13.3,1505.2,327.2,-0.7,1.8,2469.174,13.28,0.056,160.3
2021-03-19T00:43:03,42.805,6.029,0.025,-0.047,-0.011,111.0,110.0,107.0,13.4,1505.2,327.7,-0.7,1.8,2469.174,13.28,0.053,152.0
2021-03-19T00:46:03,42.805,6.029,0.019,-0.051,0.013,112.0,111.0,107.0,13.4,1505.2,327.2,-0.7,1.8,2469.154,13.28,0.054,159.6
2021-03-19T00:49:03,42.805,6.029,0.002,-0.042,0.0,112.0,111.0,109.0,13.3,1505.2,327.5,-0.7,1.8,2469.184,13.28,0.042,177.3
2021-03-19T00:52:03,42.805,6.029,0.008,-0.044,0.014,112.0,112.0,107.0,13.3,1505.2,327.0,-0.7,1.8,2469.135,13.28,0.044,169.7
2021-03-19T00:55:03,42.805,6.029,0.024,-0.055,0.009,112.0,111.0,107.0,13.3,1505.2,327.6,-0.7,1.8,2469.124,13.28,0.06,156.4
2021-03-19T00:58:03,42.805,6.029,0.009,-0.037,-0.009,112.0,111.0,107.0,13.4,1505.2,327.0,-0.7,1.8,2469.152,13.28,0.038,166.3
2021-03-19T01:04:03,42.805,6.029,-0.001,-0.066,-0.016,113.0,111.0,108.0,13.4,1505.2,327.5,-0.8,1.8,2469.155,13.28,0.066,180.9
2021-03-19T01:07:03,42.805,6.029,0.016,-0.042,-0.034,112.0,112.0,108.0,13.3,1505.2,327.9,-0.7,1.8,2469.157,13.28,0.044,159.1
2021-03-19T01:10:03,42.805,6.029,0.01,-0.062,0.013,112.0,111.0,106.0,13.3,1505.2,327.0,-0.8,1.8,2469.154,13.28,0.062,170.8
2021-03-19T01:13:03,42.805,6.029,0.0,-0.063,-0.001,111.0,110.0,107.0,13.4,1505.2,327.5,-0.8,1.8,2469.15,13.28,0.062,180.0
2021-03-19T01:16:03,42.805,6.029,0.007,-0.048,0.006,111.0,110.0,107.0,13.4,1505.2,327.9,-0.7,1.8,2469.137,13.28,0.048,171.7
2021-03-19T01:19:03,42.805,6.029,0.0,-0.022,0.007,111.0,110.0,107.0,13.4,1505.2,327.0,-0.8,1.8,2469.116,13.28,0.022,180.0
2021-03-19T01:22:03,42.805,6.029,0.009,-0.058,0.009,112.0,110.0,107.0,13.4,1505.2,327.7,-0.7,1.8,2469.119,13.28,0.058,171.2
2021-03-19T01:25:03,42.805,6.029,0.029,-0.062,0.004,111.0,110.0,107.0,13.4,1505.2,327.8,-0.7,1.8,2469.137,13.28,0.068,154.9
2021-03-19T01:28:03,42.805,6.029,0.007,-0.049,-0.009,110.0,109.0,106.0,13.3,1505.2,327.7,-0.8,1.9,2469.133,13.28,0.049,171.9
2021-03-19T01:31:03,42.805,6.029,0.021,-0.042,0.001,110.0,110.0,108.0,13.3,1505.2,327.1,-0.8,1.8,2469.153,13.28,0.046,153.4
2021-03-19T01:34:03,42.805,6.029,0.007,-0.058,0.007,111.0,111.0,107.0,13.3,1505.2,327.0,-0.8,1.8,2469.12,13.28,0.058,173.1
2021-03-19T01:37:03,42.805,6.029,0.026,-0.065,-0.013,110.0,111.0,108.0,13.4,1505.2,327.6,-0.8,1.8,2469.149,13.28,0.07,158.2
2021-03-19T01:40:03,42.805,6.029,0.008,-0.056,-0.029,111.0,110.0,107.0,13.3,1505.2,327.0,-0.8,1.8,2469.136,13.28,0.056,171.9
2021-03-19T01:43:03,42.805,6.029,0.015,-0.059,0.0,110.0,110.0,106.0,13.4,1505.2,327.2,-0.7,1.8,2469.183,13.28,0.06,165.7
2021-03-19T01:46:03,42.805,6.029,0.014,-0.044,0.039,111.0,110.0,106.0,13.4,1505.2,327.2,-0.7,1.8,2469.156,13.28,0.046,162.4
2021-03-19T01:49:03,42.805,6.029,0.012,-0.053,0.015,110.0,111.0,107.0,13.4,1505.2,327.1,-0.8,1.8,2469.135,13.28,0.054,167.2
2021-03-19T01:52:03,42.805,6.029,0.039,-0.067,0.0,110.0,110.0,106.0,13.4,1505.2,327.3,-0.7,1.8,2469.119,13.28,0.077,149.8
2021-03-19T01:55:03,42.805,6.029,0.032,-0.053,0.012,111.0,111.0,107.0,13.4,1505.2,327.1,-0.8,1.9,2469.159,13.28,0.061,148.9
2021-03-19T01:58:03,42.805,6.029,0.019,-0.066,0.02,111.0,109.0,108.0,13.3,1505.2,327.6,-0.8,1.8,2469.15,13.28,0.068,163.9
2021-03-19T02:04:03,42.805,6.029,0.0,-0.025,-0.013,113.0,110.0,107.0,13.3,1505.2,327.1,-0.8,1.8,2469.187,13.28,0.025,180.0
2021-03-19T02:07:03,42.805,6.029,-0.011,-0.051,-0.01,113.0,110.0,108.0,13.3,1505.2,327.2,-0.7,1.8,2469.131,13.28,0.052,192.2
2021-03-19T02:10:03,42.805,6.029,0.009,-0.05,0.033,111.0,111.0,107.0,13.4,1505.2,327.2,-0.8,1.8,2469.121,13.28,0.05,169.8
2021-03-19T02:13:03,42.805,6.029,0.017,-0.06,0.006,112.0,110.0,107.0,13.4,1505.2,327.1,-0.8,1.8,2469.145,13.28,0.062,164.2
2021-03-19T02:16:03,42.805,6.029,0.013,-0.051,0.008,112.0,111.0,108.0,13.4,1505.2,327.2,-0.7,1.8,2469.118,13.28,0.052,165.7
2021-03-19T02:19:03,42.805,6.029,0.022,-0.057,0.0,113.0,111.0,107.0,13.3,1505.2,327.0,-0.8,1.8,2469.132,13.28,0.061,158.9
2021-03-19T02:22:03,42.805,6.029,0.022,-0.061,-0.007,111.0,110.0,107.0,13.4,1505.2,327.6,-0.7,1.9,2469.157,13.28,0.064,160.2
2021-03-19T02:25:03,42.805,6.029,0.002,-0.067,0.011,111.0,112.0,106.0,13.4,1505.2,327.4,-0.7,1.8,2469.158,13.28,0.067,178.3
2021-03-19T02:28:03,42.805,6.029,0.032,-0.097,0.019,111.0,111.0,108.0,13.3,1505.2,327.3,-0.7,1.8,2469.126,13.28,0.102,161.7
2021-03-19T02:31:03,42.805,6.029,0.007,-0.056,0.022,114.0,110.0,107.0,13.4,1505.2,327.7,-0.7,1.8,2469.099,13.28,0.056,172.9
2021-03-19T02:34:03,42.805,6.029,-0.007,-0.059,-0.005,111.0,110.0,107.0,13.3,1505.2,327.5,-0.7,1.8,2469.131,13.28,0.059,186.8
2021-03-19T02:37:03,42.805,6.029,0.021,-0.034,0.0,111.0,111.0,108.0,13.3,1505.2,327.7,-0.8,1.8,2469.145,13.28,0.039,148.3
2021-03-19T02:40:03,42.805,6.029,0.008,-0.057,0.004,113.0,110.0,107.0,13.3,1505.2,327.1,-0.8,1.8,2469.145,13.28,0.057,172.0
2021-03-19T02:43:03,42.805,6.029,0.003,-0.049,0.015,111.0,111.0,106.0,13.4,1505.2,327.6,-0.7,1.8,2469.137,13.28,0.049,176.5
2021-03-19T02:46:03,42.805,6.029,0.019,-0.051,0.009,112.0,109.0,107.0,13.4,1505.2,327.0,-0.8,1.8,2469.153,13.28,0.054,159.6
2021-03-19T02:49:03,42.805,6.029,0.007,-0.043,0.017,110.0,110.0,106.0,13.4,1505.2,327.1,-0.7,1.8,2469.132,13.28,0.043,170.8
2021-03-19T02:52:03,42.805,6.029,0.016,-0.078,-0.01,111.0,110.0,107.0,13.4,1505.2,327.6,-0.8,1.9,2469.175,13.28,0.079,168.4
2021-03-19T02:55:03,42.805,6.029,-0.007,-0.067,-0.008,111.0,110.0,106.0,13.3,1505.2,327.0,-0.8,1.8,2469.128,13.28,0.067,186.0
2021-03-19T02:58:03,42.805,6.029,0.012,-0.062,0.006,112.0,110.0,107.0,13.4,1505.2,327.0,-0.8,1.8,2469.142,13.28,0.063,169.0
2021-03-19T03:04:03,42.805,6.029,-0.004,-0.035,0.007,111.0,111.0,107.0,13.4,1505.2,327.2,-0.8,1.8,2469.146,13.28,0.035,186.5
2021-03-19T03:07:03,42.805,6.029,-0.004,-0.054,-0.002,112.0,110.0,107.0,13.4,1505.2,327.3,-0.8,1.9,2469.147,13.28,0.054,184.2
2021-03-19T03:10:03,42.805,6.029,0.008,-0.041,-0.012,110.0,109.0,107.0,13.4,1505.2,327.3,-0.7,1.8,2469.175,13.28,0.041,169.0
2021-03-19T03:13:03,42.805,6.029,0.013,-0.04,0.03,113.0,110.0,107.0,13.3,1505.2,327.2,-0.7,1.8,2469.157,13.28,0.042,162.0
2021-03-19T03:16:03,42.805,6.029,0.0,-0.048,0.002,112.0,110.0,107.0,13.4,1505.2,327.1,-0.8,1.8,2469.165,13.28,0.048,180.0
2021-03-19T03:19:03,42.805,6.029,0.012,-0.06,0.009,111.0,111.0,107.0,13.4,1505.2,326.8,-0.8,1.8,2469.144,13.28,0.061,168.7
2021-03-19T03:22:03,42.805,6.029,0.009,-0.046,0.039,110.0,112.0,107.0,13.4,1505.2,327.0,-0.8,1.8,2469.147,13.28,0.046,168.9
2021-03-19T03:25:03,42.805,6.029,0.007,-0.036,0.037,112.0,111.0,107.0,13.4,1505.2,327.1,-0.7,1.8,2469.163,13.28,0.036,169.0
2021-03-19T03:28:03,42.805,6.029,0.0,-0.041,0.009,112.0,110.0,108.0,13.4,1505.2,327.3,-0.8,1.8,2469.173,13.28,0.041,180.0
2021-03-19T03:31:03,42.805,6.029,0.012,-0.038,-0.007,112.0,110.0,106.0,13.4,1505.2,327.6,-0.8,1.8,2469.174,13.28,0.039,162.5
2021-03-19T03:34:03,42.805,6.029,0.004,-0.033,0.005,112.0,110.0,108.0,13.3,1505.2,327.2,-0.8,1.9,2469.183,13.28,0.033,173.1
2021-03-19T03:37:03,42.805,6.029,0.022,-0.062,-0.001,112.0,110.0,107.0,13.4,1505.2,327.4,-0.7,1.8,2469.145,13.28,0.065,160.5
2021-03-19T03:40:03,42.805,6.029,-0.008,-0.051,-0.022,112.0,111.0,107.0,13.3,1505.2,327.7,-0.7,1.8,2469.17,13.28,0.051,188.9
2021-03-19T03:43:03,42.805,6.029,0.013,-0.057,-0.005,112.0,111.0,108.0,13.4,1505.2,327.4,-0.8,1.8,2469.146,13.28,0.058,167.2
2021-03-19T03:46:03,42.805,6.029,0.01,-0.066,-0.007,111.0,110.0,107.0,13.3,1505.2,327.6,-0.8,1.8,2469.152,13.28,0.066,171.4
2021-03-19T03:49:03,42.805,6.029,0.017,-0.052,-0.009,113.0,109.0,108.0,13.3,1505.2,327.5,-0.7,1.8,2469.145,13.28,0.054,161.9
2021-03-19T03:52:03,42.805,6.029,0.022,-0.063,-0.005,110.0,110.0,108.0,13.3,1505.2,327.5,-0.7,1.8,2469.147,13.28,0.066,160.8
2021-03-19T03:55:03,42.805,6.029,-0.002,-0.042,-0.004,112.0,110.0,107.0,13.4,1505.2,327.3,-0.7,1.8,2469.149,13.28,0.042,182.7
2021-03-19T03:58:03,42.805,6.029,0.0,-0.043,0.016,113.0,110.0,107.0,13.4,1505.2,327.7,-0.8,1.8,2469.172,13.28,0.043,180.0
2021-03-19T04:04:03,42.805,6.029,0.009,-0.041,0.012,113.0,110.0,107.0,13.4,1505.2,327.7,-0.7,1.8,2469.195,13.28,0.041,167.6
2021-03-19T04:07:03,42.805,6.029,0.004,-0.04,-0.006,112.0,111.0,108.0,13.4,1505.2,327.7,-0.7,1.8,2469.158,13.28,0.04,174.3
2021-03-19T04:10:03,42.805,6.029,-0.008,-0.04,0.019,111.0,109.0,108.0,13.3,1505.2,327.0,-0.8,1.8,2469.12,13.28,0.04,191.3
2021-03-19T04:13:03,42.805,6.029,0.015,-0.057,-0.006,112.0,110.0,107.0,13.4,1505.2,327.3,-0.8,1.8,2469.129,13.28,0.058,165.3
2021-03-19T04:16:03,42.805,6.029,-0.002,-0.035,0.022,111.0,111.0,108.0,13.4,1505.2,327.1,-0.8,1.9,2469.089,13.28,0.035,183.3
2021-03-19T04:19:03,42.805,6.029,0.013,-0.042,-0.011,112.0,110.0,106.0,13.4,1505.2,326.8,-0.8,1.8,2469.145,13.28,0.043,162.8
2021-03-19T04:22:03,42.805,6.029,0.006,-0.054,0.005,110.0,110.0,107.0,13.4,1505.2,327.6,-0.8,1.8,2469.12,13.28,0.054,173.7
2021-03-19T04:25:03,42.805,6.029,0.001,-0.059,0.004,112.0,111.0,107.0,13.4,1505.2,327.3,-0.7,1.8,2469.135,13.28,0.059,179.0
2021-03-19T04:28:03,42.805,6.029,-0.003,-0.041,0.017,112.0,111.0,108.0,13.3,1505.2,327.1,-0.7,1.8,2469.131,13.28,0.041,184.2
2021-03-19T04:31:03,42.805,6.029,0.006,-0.039,0.005,112.0,110.0,109.0,13.3,1505.2,327.2,-0.7,1.8,2469.183,13.28,0.039,171.3
2021-03-19T04:34:03,42.805,6.029,-0.006,-0.038,0.012,111.0,111.0,108.0,13.4,1505.2,327.7,-0.8,1.9,2469.195,13.28,0.038,189.0
2021-03-19T04:37:03,42.805,6.029,0.004,-0.046,-0.004,112.0,110.0,108.0,13.4,1505.2,327.5,-0.8,1.8,2469.174,13.28,0.046,175.0
2021-03-19T04:40:03,42.805,6.029,0.019,-0.053,-0.028,113.0,111.0,107.0,13.4,1505.2,327.5,-0.8,1.8,2469.158,13.28,0.056,160.3
2021-03-19T04:43:03,42.805,6.029,0.005,-0.044,-0.015,111.0,110.0,107.0,13.3,1505.2,327.7,-0.7,1.8,2469.198,13.28,0.044,173.5
2021-03-19T04:46:03,42.805,6.029,0.004,-0.045,-0.004,113.0,110.0,107.0,13.4,1505.2,327.4,-0.8,1.9,2469.167,13.28,0.045,174.9
2021-03-19T04:49:03,42.805,6.029,0.016,-0.055,-0.022,112.0,110.0,108.0,13.4,1505.2,327.5,-0.7,1.8,2469.179,13.28,0.057,163.8
2021-03-19T04:52:03,42.805,6.029,0.031,-0.056,-0.007,111.0,111.0,107.0,13.4,1505.2,327.2,-0.8,1.8,2469.179,13.28,0.064,151.0
2021-03-19T04:55:03,42.805,6.029,0.014,-0.041,-0.013,111.0,110.0,108.0,13.4,1505.2,327.4,-0.8,1.8,2469.156,13.28,0.043,161.1
2021-03-19T04:58:03,42.805,6.029,0.01,-0.06,0.012,111.0,111.0,105.0,13.4,1505.2,326.9,-0.8,1.8,2469.189,13.28,0.06,170.5
2021-03-19T05:04:03,42.805,6.029,0.011,-0.046,-0.024,112.0,111.0,107.0,13.3,1505.2,327.4,-0.8,1.8,2469.228,13.28,0.047,166.6
2021-03-19T05:07:03,42.805,6.029,-0.005,-0.04,-0.004,112.0,110.0,109.0,13.3,1505.2,327.6,-0.7,1.8,2469.188,13.28,0.04,187.1
2021-03-19T05:10:03,42.805,6.029,0.018,-0.057,0.009,112.0,111.0,107.0,13.4,1505.2,327.1,-0.8,1.8,2469.184,13.28,0.059,162.5
2021-03-19T05:13:03,42.805,6.029,0.005,-0.05,0.0,112.0,111.0,107.0,13.3,1505.2,327.7,-0.7,1.8,2469.198,13.28,0.05,174.3
2021-03-19T05:16:03,42.805,6.029,0.009,-0.047,0.013,110.0,112.0,107.0,13.3,1505.2,327.8,-0.8,1.8,2469.203,13.28,0.047,169.2
2021-03-19T05:19:03,42.805,6.029,0.011,-0.048,0.012,111.0,112.0,107.0,13.4,1505.2,327.3,-0.7,1.8,2469.237,13.28,0.049,167.1
2021-03-19T05:22:03,42.805,6.029,0.0,-0.048,0.022,111.0,110.0,107.0,13.4,1505.2,327.6,-0.8,1.8,2469.203,13.28,0.048,180.0
2021-03-19T05:25:03,42.805,6.029,0.021,-0.056,-0.011,111.0,111.0,107.0,13.4,1505.2,327.4,-0.7,1.8,2469.202,13.28,0.059,159.4
2021-03-19T05:28:03,42.805,6.029,0.014,-0.048,-0.006,112.0,110.0,107.0,13.3,1505.2,327.8,-0.7,1.9,2469.203,13.28,0.05,163.7
2021-03-19T05:31:03,42.805,6.029,0.001,-0.054,-0.005,113.0,112.0,106.0,13.4,1505.2,327.8,-0.8,1.8,2469.207,13.28,0.054,178.9
2021-03-19T05:34:03,42.805,6.029,0.014,-0.037,0.02,113.0,112.0,108.0,13.3,1505.2,327.6,-0.7,1.8,2469.239,13.28,0.039,159.3
2021-03-19T05:37:03,42.805,6.029,0.009,-0.036,0.005,112.0,111.0,108.0,13.4,1505.2,327.0,-0.8,1.9,2469.2,13.28,0.037,166.0
2021-03-19T05:40:03,42.805,6.029,-0.008,-0.043,-0.001,111.0,111.0,106.0,13.4,1505.2,327.6,-0.8,1.8,2469.203,13.28,0.043,190.5
2021-03-19T05:43:03,42.805,6.029,0.029,-0.04,-0.011,111.0,110.0,108.0,13.3,1505.2,327.3,-0.7,1.8,2469.239,13.28,0.049,144.1
2021-03-19T05:46:03,42.805,6.029,0.011,-0.053,0.009,112.0,111.0,106.0,13.4,1505.2,327.1,-0.8,1.8,2469.217,13.28,0.054,168.3
2021-03-19T05:49:03,42.805,6.029,0.01,-0.058,-0.014,110.0,111.0,107.0,13.4,1505.2,327.4,-0.7,1.8,2469.221,13.28,0.058,170.2
2021-03-19T05:52:03,42.805,6.029,-0.006,-0.053,0.013,111.0,111.0,107.0,13.4,1505.2,327.6,-0.8,1.8,2469.278,13.28,0.053,186.5
2021-03-19T05:55:03,42.805,6.029,0.008,-0.03,-0.01,112.0,110.0,108.0,13.4,1505.2,327.7,-0.7,1.8,2469.282,13.28,0.031,165.1
2021-03-19T05:58:03,42.805,6.029,0.014,-0.058,0.017,113.0,109.0,107.0,13.3,1505.2,327.3,-0.8,1.8,2469.25,13.28,0.059,166.4
2021-03-19T06:04:03,42.805,6.029,0.005,-0.057,-0.009,111.0,111.0,107.0,13.4,1505.2,327.2,-0.7,1.8,2469.314,13.28,0.057,175.0
2021-03-19T06:07:03,42.805,6.029,0.021,-0.033,0.004,112.0,111.0,107.0,13.4,1505.2,327.1,-0.8,1.8,2469.235,13.28,0.039,147.5
2021-03-19T06:10:03,42.805,6.029,0.026,-0.056,-0.003,111.0,110.0,107.0,13.3,1505.2,327.2,-0.7,1.8,2469.287,13.28,0.061,155.1
2021-03-19T06:13:03,42.805,6.029,0.021,-0.044,0.0,110.0,110.0,107.0,13.4,1505.2,327.0,-0.8,1.9,2469.226,13.28,0.048,154.5
2021-03-19T06:16:03,42.805,6.029,-0.002,-0.045,0.023,110.0,109.0,107.0,13.4,1505.2,327.3,-0.8,1.8,2469.242,13.28,0.045,182.5
2021-03-19T06:19:03,42.805,6.029,0.021,-0.036,0.013,111.0,110.0,106.0,13.4,1505.2,327.1,-0.8,1.8,2469.238,13.28,0.041,149.7
2021-03-19T06:22:03,42.805,6.029,0.021,-0.052,-0.012,111.0,110.0,108.0,13.4,1505.2,327.2,-0.7,1.8,2469.248,13.28,0.056,158.0
2021-03-19T06:25:03,42.805,6.029,0.007,-0.028,0.0,111.0,110.0,107.0,13.4,1505.2,326.8,-0.7,1.8,2469.217,13.28,0.028,166.0
2021-03-19T06:28:03,42.805,6.029,0.0,-0.041,-0.002,113.0,110.0,107.0,13.4,1505.2,327.7,-0.7,1.8,2469.204,13.28,0.041,180.0
2021-03-19T06:31:03,42.805,6.029,-0.004,-0.034,0.013,111.0,110.0,107.0,13.3,1505.2,327.5,-0.7,1.8,2469.26,13.28,0.034,186.7
2021-03-19T06:34:03,42.805,6.029,0.013,-0.034,-0.015,111.0,109.0,107.0,13.4,1505.2,327.5,-0.8,1.8,2469.218,13.28,0.036,159.1
2021-03-19T06:37:03,42.805,6.029,0.014,-0.043,-0.001,112.0,111.0,106.0,13.4,1505.2,327.0,-0.7,1.8,2469.234,13.28,0.045,162.0
2021-03-19T06:40:03,42.805,6.029,0.02,-0.062,-0.015,112.0,111.0,108.0,13.4,1505.2,327.6,-0.7,1.8,2469.252,13.28,0.065,162.1
2021-03-19T06:43:03,42.805,6.029,0.02,-0.051,-0.013,111.0,110.0,109.0,13.4,1505.2,327.1,-0.7,1.8,2469.245,13.28,0.054,158.6
2021-03-19T06:46:03,42.805,6.029,0.018,-0.052,0.006,111.0,110.0,107.0,13.3,1505.2,327.7,-0.7,1.8,2469.232,13.28,0.055,160.9
2021-03-19T06:49:03,42.805,6.029,0.022,-0.053,-0.012,111.0,111.0,108.0,13.4,1505.2,327.6,-0.8,1.8,2469.264,13.28,0.057,157.5
2021-03-19T06:52:03,42.805,6.029,0.027,-0.051,0.012,111.0,110.0,107.0,13.3,1505.2,327.2,-0.7,1.8,2469.276,13.28,0.057,152.1
2021-03-19T06:55:03,42.805,6.029,0.048,-0.038,-0.029,112.0,110.0,108.0,13.3,1505.2,327.2,-0.7,1.8,2469.267,13.28,0.061,128.4
2021-03-19T06:58:03,42.805,6.029,0.01,-0.046,0.006,112.0,110.0,107.0,13.4,1505.2,327.8,-0.8,1.8,2469.265,13.28,0.047,167.7
2021-03-19T07:04:03,42.805,6.029,0.009,-0.041,0.011,110.0,110.0,107.0,13.3,1505.2,327.2,-0.8,1.9,2469.339,13.28,0.041,167.6
2021-03-19T07:07:03,42.805,6.029,0.025,-0.049,-0.017,110.0,111.0,107.0,13.4,1505.2,327.6,-0.8,1.8,2469.321,13.28,0.055,153.0
2021-03-19T07:10:03,42.805,6.029,0.014,-0.022,0.001,112.0,110.0,106.0,13.4,1505.2,326.8,-0.7,1.8,2469.295,13.28,0.026,147.5
2021-03-19T07:13:03,42.805,6.029,0.007,-0.057,0.003,113.0,111.0,108.0,13.4,1505.2,327.6,-0.7,1.8,2469.309,13.28,0.057,173.0
2021-03-19T07:16:03,42.805,6.029,0.025,-0.049,-0.01,111.0,110.0,107.0,13.4,1505.2,327.4,-0.7,1.9,2469.322,13.28,0.055,153.0
2021-03-19T07:19:03,42.805,6.029,0.027,-0.055,0.0,111.0,110.0,107.0,13.4,1505.2,327.5,-0.7,1.8,2469.306,13.28,0.061,153.9
2021-03-19T07:22:03,42.805,6.029,0.019,-0.066,0.0,113.0,111.0,107.0,13.4,1505.2,327.5,-0.8,1.8,2469.345,13.28,0.068,163.9
2021-03-19T07:25:03,42.805,6.029,0.01,-0.065,0.02,112.0,110.0,108.0,13.3,1505.2,327.5,-0.8,1.8,2469.29,13.28,0.065,171.3
2021-03-19T07:28:03,42.805,6.029,0.029,-0.049,-0.008,110.0,110.0,108.0,13.4,1505.2,327.6,-0.7,1.8,2469.323,13.28,0.056,149.4
2021-03-19T07:31:03,42.805,6.029,0.03,-0.038,0.002,112.0,111.0,108.0,13.4,1505.2,327.6,-0.8,1.8,2469.351,13.28,0.048,141.7
2021-03-19T07:34:03,42.805,6.029,0.028,-0.057,-0.008,112.0,110.0,107.0,13.4,1505.2,327.2,-0.8,1.8,2469.321,13.28,0.063,153.8
2021-03-19T07:37:03,42.805,6.029,0.023,-0.044,-0.004,113.0,110.0,108.0,13.4,1505.2,327.2,-0.7,1.8,2469.324,13.28,0.049,152.4
2021-03-19T07:40:03,42.805,6.029,0.038,-0.04,0.004,113.0,111.0,108.0,13.4,1505.2,327.5,-0.8,1.8,2469.334,13.28,0.055,136.5
2021-03-19T07:43:03,42.805,6.029,0.024,-0.049,0.02,112.0,110.0,107.0,13.3,1505.2,327.8,-0.8,1.8,2469.334,13.28,0.054,153.9
2021-03-19T07:46:03,42.805,6.029,0.026,-0.056,-0.016,112.0,111.0,106.0,13.3,1505.2,327.1,-0.7,1.8,2469.314,13.28,0.061,155.1
2021-03-19T07:49:03,42.805,6.029,0.027,-0.042,0.006,111.0,111.0,108.0,13.4,1505.2,327.4,-0.7,1.8,2469.352,13.28,0.049,147.3
2021-03-19T07:52:03,42.805,6.029,0.013,-0.057,-0.01,112.0,110.0,108.0,13.4,1505.2,327.2,-0.7,1.8,2469.363,13.28,0.058,167.2
2021-03-19T07:55:03,42.805,6.029,0.022,-0.058,0.012,112.0,110.0,108.0,13.4,1505.2,327.5,-0.7,1.8,2469.387,13.28,0.062,159.2
2021-03-19T07:58:03,42.805,6.029,0.014,-0.038,-0.001,112.0,110.0,107.0,13.4,1505.2,327.6,-0.8,1.8,2469.359,13.28,0.04,159.8
2021-03-19T08:04:03,42.805,6.029,0.039,-0.03,0.001,112.0,111.0,107.0,13.4,1505.2,327.4,-0.8,1.8,2469.412,13.28,0.049,127.6
2021-03-19T08:07:03,42.805,6.029,0.033,-0.051,-0.013,111.0,110.0,107.0,13.3,1505.2,327.5,-0.8,1.8,2469.397,13.28,0.06,147.1
2021-03-19T08:10:03,42.805,6.029,0.027,-0.038,0.007,110.0,110.0,107.0,13.4,1505.2,327.8,-0.7,1.9,2469.423,13.28,0.046,144.6
2021-03-19T08:13:03,42.805,6.029,0.038,-0.05,-0.01,111.0,110.0,107.0,13.4,1505.2,327.4,-0.8,1.8,2469.408,13.28,0.062,142.8
2021-03-19T08:16:03,42.805,6.029,0.038,-0.037,-0.004,111.0,111.0,109.0,13.4,1505.2,327.6,-0.7,1.8,2469.407,13.28,0.053,134.2
2021-03-19T08:19:03,42.805,6.029,0.041,-0.038,0.027,111.0,111.0,108.0,13.3,1505.2,327.6,-0.7,1.8,2469.424,13.28,0.055,132.8
2021-03-19T08:22:03,42.805,6.029,0.017,-0.038,-0.008,111.0,110.0,107.0,13.4,1505.2,327.1,-0.7,1.8,2469.358,13.28,0.041,155.9
2021-03-19T08:25:03,42.805,6.029,0.031,-0.047,-0.006,111.0,108.0,107.0,13.4,1505.2,327.1,-0.7,1.8,2469.363,13.28,0.056,146.6
2021-03-19T08:28:03,42.805,6.029,0.034,-0.049,0.005,111.0,110.0,107.0,13.3,1505.2,327.1,-0.8,1.8,2469.383,13.28,0.059,145.2
2021-03-19T08:31:03,42.805,6.029,0.043,-0.058,0.014,112.0,111.0,106.0,13.4,1505.2,327.3,-0.8,1.8,2469.366,13.28,0.072,143.4
2021-03-19T08:34:03,42.805,6.029,0.025,-0.044,-0.027,110.0,111.0,108.0,13.4,1505.2,327.7,-0.7,1.8,2469.385,13.28,0.05,150.4
2021-03-19T08:37:03,42.805,6.029,0.021,-0.053,-0.017,112.0,110.0,108.0,13.3,1505.2,327.4,-0.8,1.8,2469.385,13.28,0.057,158.4
2021-03-19T08:40:03,42.805,6.029,0.045,-0.036,0.003,112.0,111.0,108.0,13.4,1505.2,327.5,-0.8,1.8,2469.426,13.28,0.057,128.7
2021-03-19T08:43:03,42.805,6.029,0.025,-0.053,0.017,112.0,110.0,108.0,13.3,1505.2,327.0,-0.8,1.8,2469.393,13.28,0.058,154.7
2021-03-19T08:46:03,42.805,6.029,0.019,-0.035,0.003,111.0,111.0,108.0,13.4,1505.2,327.1,-0.8,1.8,2469.399,13.28,0.039,151.5
2021-03-19T08:49:03,42.805,6.029,0.03,-0.065,-0.006,112.0,112.0,107.0,13.4,1505.2,327.1,-0.8,1.8,2469.44,13.28,0.071,155.2
2021-03-19T08:52:03,42.805,6.029,0.02,-0.051,0.02,111.0,110.0,108.0,13.3,1505.2,327.1,-0.8,1.8,2469.44,13.28,0.054,158.6
2021-03-19T08:55:03,42.805,6.029,0.018,-0.03,-0.008,111.0,111.0,107.0,13.4,1505.2,327.6,-0.8,1.8,2469.403,13.28,0.034,149.0
2021-03-19T08:58:03,42.805,6.029,0.033,-0.052,0.03,112.0,109.0,107.0,13.4,1505.2,327.6,-0.8,1.8,2469.417,13.28,0.061,147.6
2021-03-19T09:04:03,42.805,6.029,0.019,-0.036,0.008,112.0,109.0,109.0,13.3,1505.2,327.3,-0.8,1.8,2469.458,13.28,0.04,152.2
2021-03-19T09:07:03,42.805,6.029,0.012,-0.038,0.014,112.0,111.0,107.0,13.4,1505.2,327.3,-0.8,1.8,2469.468,13.28,0.039,162.5
2021-03-19T09:10:03,42.805,6.029,0.026,-0.031,0.009,111.0,111.0,108.0,13.4,1505.2,327.5,-0.7,1.8,2469.507,13.28,0.04,140.0
2021-03-19T09:13:03,42.805,6.029,0.015,-0.036,-0.012,113.0,111.0,108.0,13.4,1505.2,327.6,-0.7,1.8,2469.455,13.28,0.039,157.4
2021-03-19T09:16:03,42.805,6.029,0.022,-0.047,-0.009,115.0,111.0,109.0,13.3,1505.2,327.5,-0.7,1.8,2469.455,13.28,0.051,154.9
2021-03-19T09:19:03,42.805,6.029,0.033,-0.041,0.01,113.0,113.0,109.0,13.4,1505.2,327.1,-0.8,1.8,2469.445,13.28,0.052,141.2
2021-03-19T09:22:03,42.805,6.029,0.022,-0.037,0.004,112.0,112.0,107.0,13.4,1505.2,327.3,-0.7,1.8,2469.456,13.28,0.043,149.3
2021-03-19T09:25:03,42.805,6.029,0.037,-0.032,-0.015,114.0,112.0,109.0,13.4,1505.2,327.1,-0.7,1.8,2469.451,13.28,0.048,130.9
2021-03-19T09:28:03,42.805,6.029,0.012,-0.021,0.0,113.0,112.0,109.0,13.4,1505.2,327.3,-0.7,1.8,2469.437,13.28,0.024,150.3
2021-03-19T09:31:03,42.805,6.029,0.028,-0.032,-0.005,113.0,111.0,108.0,13.3,1505.2,327.0,-0.8,1.9,2469.453,13.28,0.042,138.8
2021-03-19T09:34:03,42.805,6.029,0.024,-0.031,0.017,112.0,114.0,108.0,13.4,1505.2,327.1,-0.7,1.8,2469.455,13.28,0.039,142.3
2021-03-19T09:37:03,42.805,6.029,0.022,-0.049,0.002,112.0,113.0,109.0,13.3,1505.2,327.5,-0.7,1.8,2469.473,13.28,0.053,155.8
2021-03-19T09:40:03,42.805,6.029,0.037,-0.038,-0.004,112.0,111.0,108.0,13.4,1505.2,327.4,-0.7,1.8,2469.433,13.28,0.053,135.8
2021-03-19T09:43:03,42.805,6.029,0.04,-0.029,-0.008,113.0,113.0,108.0,13.4,1505.2,327.2,-0.8,1.8,2469.474,13.28,0.049,125.9
2021-03-19T09:46:03,42.805,6.029,0.032,-0.021,0.003,113.0,112.0,109.0,13.4,1505.2,327.3,-0.7,1.8,2469.481,13.28,0.038,123.3
2021-03-19T09:49:03,42.805,6.029,0.024,-0.039,-0.001,113.0,112.0,108.0,13.4,1505.2,327.4,-0.8,1.8,2469.475,13.28,0.045,148.4
2021-03-19T09:52:03,42.805,6.029,0.023,-0.024,0.003,113.0,113.0,109.0,13.4,1505.2,327.0,-0.8,1.8,2469.452,13.28,0.033,136.2
2021-03-19T09:55:03,42.805,6.029,0.029,-0.017,0.034,112.0,112.0,109.0,13.4,1505.2,327.4,-0.8,1.8,2469.47,13.28,0.033,120.4